Tracking 25195 objects as of 21-Jan-2022
HD Live streaming from Space Station
objects crossing your sky now

GSTAR 4

Track GSTAR 4 now!
GSTAR 4 is classified as:


NORAD ID: 20946
Int'l Code: 1990-100B
Perigee: 36,077.7 km
Apogee: 36,146.5 km
Inclination: 13.2 °
Period: 1,452.4 minutes
Semi major axis: 42483 km
RCS: 8.7599 m2 (large)
Launch date: November 20, 1990
Source: United States (US)
Launch site: FRENCH GUIANA (FRGUI)
aabbcc
Your satellite tracking list
Your tracking list is empty




NASA's NSSDC Master Catalog

Two Line Element Set (TLE):
1 20946U 90100B   22020.29220000 -.00000178  00000-0  00000-0 0  9999
2 20946  13.1840  21.4618 0008105 324.1854  55.9909  0.99146793 30865
Source of the keplerian elements: AFSPC